Weather History for Fukuoka Airport, Japan

Change the Weather History Date:

Tuesday, July 30, 2013

  Actual Average Record
Temperature  
Mean Temperature 88 °F -  
Max Temperature 95 °F 87 °F 95 °F (2001)
Min Temperature 82 °F 73 °F 73 °F (1997)
Cooling Degree Days 24    
Growing Degree Days 38 (Base 50)    
Moisture  
Dew Point 77 °F    
Average Humidity 72    
Maximum Humidity 84    
Minimum Humidity 56    
Precipitation  
Precipitation 0.00 in - - ()
Sea Level Pressure  
Sea Level Pressure 29.63 in    
Wind  
Wind Speed 7 mph ()    
Max Wind Speed 14 mph    
Max Gust Speed -    
Visibility 6.2 miles    
Events Rain , Thunderstorm    
Averages and records for this station are not official NWS values.
T = Trace of Precipitation, MM = Missing Value Source: Averaged Metar Reports

Daily Weather History Graph

Daily Weather History Graph

Search for Another Location

Airport:

Trip Planner

Search our weather history database for the weather conditions in past years. The results will help you decide how hot, cold, wet, or windy it might be!

Date:

Astronomy

Jul. 30, 2013 Rise Set
Actual Time 5:28 AM JST 7:20 PM JST
Civil Twilight 5:01 AM JST 7:47 PM JST
Nautical Twilight 4:28 AM JST 8:20 PM JST
Astronomical Twilight 3:53 AM JST 8:55 PM JST
Moon No Moon Rise 1:06 PM JST
Length of Visible Light 14h 45m
Length of Day
13h 51m
Waning Gibbous, 46% of the Moon is Illuminated
Jul 30
Waning Gibbous
Aug 7
New
Aug 14
First Quarter
Aug 21
Full
Aug 28
Last Quarter

Hourly Weather History & Observations

Time (JST) Temp. Heat Index Dew Point Humidity Pressure Visibility Wind Dir Wind Speed Gust Speed Precip Events Conditions
12:00 AM 86.0 °F 95.1 °F 75.2 °F 70% 29.62 in 6.2 mi South 9.2 mph - N/A   Mostly Cloudy
12:30 AM 86.0 °F 95.1 °F 75.2 °F 70% 29.62 in 6.2 mi SSW 8.1 mph - N/A   Partly Cloudy
1:00 AM 86.0 °F 95.1 °F 75.2 °F 70% 29.65 in 6.2 mi SW 6.9 mph - N/A   Partly Cloudy
1:30 AM 86.0 °F 95.1 °F 75.2 °F 70% 29.62 in 6.2 mi SSW 10.4 mph - N/A   Partly Cloudy
2:00 AM 86.0 °F 95.1 °F 75.2 °F 70% 29.62 in 6.2 mi SSW 9.2 mph - N/A   Partly Cloudy
2:30 AM 84.2 °F 92.3 °F 75.2 °F 74% 29.62 in 6.2 mi South 8.1 mph - N/A   Scattered Clouds
3:00 AM 86.0 °F 95.1 °F 75.2 °F 70% 29.62 in 6.2 mi South 8.1 mph - N/A   Mostly Cloudy
3:30 AM 86.0 °F 95.1 °F 75.2 °F 70% 29.62 in 6.2 mi SSW 6.9 mph - N/A   Mostly Cloudy
4:00 AM 82.4 °F 90.9 °F 77.0 °F 84% 29.65 in 6.2 mi SSW 5.8 mph - N/A   Mostly Cloudy
4:30 AM 84.2 °F 94.1 °F 77.0 °F 79% 29.65 in 6.2 mi SSW 4.6 mph - N/A   Mostly Cloudy
5:00 AM 86.0 °F 95.1 °F 75.2 °F 70% 29.62 in 6.2 mi South 5.8 mph - N/A   Mostly Cloudy
5:30 AM 86.0 °F 95.1 °F 75.2 °F 70% 29.65 in 6.2 mi SSW 4.6 mph - N/A   Mostly Cloudy
6:00 AM 84.2 °F 94.1 °F 77.0 °F 79% 29.65 in 6.2 mi WNW 4.6 mph - N/A Rain Light Rain Showers
6:30 AM 84.2 °F 94.1 °F 77.0 °F 79% 29.65 in 6.2 mi Variable 1.2 mph - N/A   Mostly Cloudy
7:00 AM 84.2 °F 96.1 °F 78.8 °F 84% 29.65 in 6.2 mi Variable 2.3 mph - N/A   Mostly Cloudy
7:30 AM 84.2 °F 96.1 °F 78.8 °F 84% 29.65 in 6.2 mi Variable 2.3 mph - N/A   Mostly Cloudy
8:00 AM 86.0 °F 99.3 °F 78.8 °F 79% 29.65 in 6.2 mi SE 3.5 mph - N/A   Mostly Cloudy
8:30 AM 86.0 °F 99.3 °F 78.8 °F 79% 29.65 in 6.2 mi SE 4.6 mph - N/A   Mostly Cloudy
9:00 AM 86.0 °F 99.3 °F 78.8 °F 79% 29.65 in 6.2 mi South 3.5 mph - N/A   Mostly Cloudy
9:22 AM 89.6 °F 104.7 °F 78.8 °F 70% 29.65 in 6.2 mi SSW 4.6 mph - N/A   Mostly Cloudy
9:30 AM 87.8 °F 99.7 °F 77.0 °F 70% 29.65 in 6.2 mi Variable 3.5 mph - N/A   Mostly Cloudy
10:00 AM 89.6 °F 102.2 °F 77.0 °F 66% 29.65 in 6.2 mi SSW 4.6 mph - N/A   Mostly Cloudy
10:30 AM 91.4 °F 105.1 °F 77.0 °F 63% 29.65 in 6.2 mi Variable 3.5 mph - N/A   Mostly Cloudy
11:00 AM 89.6 °F 102.2 °F 77.0 °F 66% 29.65 in 6.2 mi NW 9.2 mph - N/A   Mostly Cloudy
11:20 AM 93.2 °F 110.2 °F 78.8 °F 63% 29.65 in 6.2 mi WNW 10.4 mph - N/A   Scattered Clouds
11:30 AM 93.2 °F 107.2 °F 77.0 °F 59% 29.62 in 6.2 mi WNW 10.4 mph - N/A   Partly Cloudy
12:00 PM 91.4 °F 102.5 °F 75.2 °F 59% 29.62 in 6.2 mi WNW 10.4 mph - N/A   Scattered Clouds
12:30 PM 95.0 °F 109.7 °F 77.0 °F 56% 29.62 in 6.2 mi WNW 12.7 mph - N/A   Partly Cloudy
1:00 PM 95.0 °F 109.7 °F 77.0 °F 56% 29.62 in 6.2 mi WNW 11.5 mph - N/A   Scattered Clouds
1:30 PM 89.6 °F 102.2 °F 77.0 °F 66% 29.62 in 6.2 mi NW 12.7 mph - N/A   Scattered Clouds
1:47 PM 87.8 °F 102.5 °F 78.8 °F 75% 29.62 in 6.2 mi Variable 8.1 mph - N/A   Scattered Clouds
2:00 PM 89.6 °F 104.7 °F 78.8 °F 70% 29.62 in 6.2 mi Variable 6.9 mph - N/A   Scattered Clouds
2:30 PM 87.8 °F 102.5 °F 78.8 °F 75% 29.59 in 6.2 mi East 6.9 mph - N/A   Scattered Clouds
3:00 PM 89.6 °F 104.7 °F 78.8 °F 70% 29.59 in 6.2 mi Variable 5.8 mph - N/A   Mostly Cloudy
3:19 PM 91.4 °F 107.2 °F 78.8 °F 66% 29.59 in 6.2 mi North 11.5 mph - N/A   Scattered Clouds
3:30 PM 91.4 °F 107.2 °F 78.8 °F 66% 29.59 in 6.2 mi NNW 12.7 mph - N/A   Scattered Clouds
4:00 PM 93.2 °F 110.2 °F 78.8 °F 63% 29.59 in 6.2 mi NW 10.4 mph - N/A   Scattered Clouds
4:30 PM 91.4 °F 107.2 °F 78.8 °F 66% 29.59 in 6.2 mi WNW 12.7 mph - N/A   Scattered Clouds
4:48 PM 91.4 °F 107.2 °F 78.8 °F 66% 29.59 in 6.2 mi WNW 13.8 mph - N/A Thunderstorm Thunderstorm
5:00 PM 89.6 °F 104.7 °F 78.8 °F 70% 29.59 in 6.2 mi West 10.4 mph - N/A Thunderstorm Thunderstorm
5:12 PM 89.6 °F 104.7 °F 78.8 °F 70% 29.59 in 6.2 mi South 6.9 mph - N/A   Scattered Clouds
5:27 PM 87.8 °F 97.6 °F 75.2 °F 66% 29.62 in 6.2 mi ESE 11.5 mph - N/A   Scattered Clouds
5:30 PM 87.8 °F 99.7 °F 77.0 °F 70% 29.62 in 6.2 mi ESE 11.5 mph - N/A   Scattered Clouds
6:00 PM 86.0 °F 96.9 °F 77.0 °F 74% 29.62 in 6.2 mi East 5.8 mph - N/A   Mostly Cloudy
6:16 PM 89.6 °F 108.2 °F 80.6 °F 75% 29.62 in 6.2 mi ENE 5.8 mph - N/A   Mostly Cloudy
6:30 PM 87.8 °F 102.5 °F 78.8 °F 75% 29.62 in 6.2 mi NE 5.8 mph - N/A   Mostly Cloudy
7:00 PM 89.6 °F 102.2 °F 77.0 °F 66% 29.62 in 6.2 mi Variable 4.6 mph - N/A   Scattered Clouds
7:30 PM 87.8 °F 97.6 °F 75.2 °F 66% 29.62 in 6.2 mi South 6.9 mph - N/A   Mostly Cloudy
8:00 PM 87.8 °F 97.6 °F 75.2 °F 66% 29.62 in 6.2 mi South 6.9 mph - N/A   Mostly Cloudy
8:30 PM 84.2 °F 94.1 °F 77.0 °F 79% 29.65 in 6.2 mi SSE 11.5 mph - N/A   Mostly Cloudy
9:00 PM 84.2 °F 94.1 °F 77.0 °F 79% 29.65 in 6.2 mi SSE 10.4 mph - N/A   Mostly Cloudy
9:30 PM 84.2 °F 94.1 °F 77.0 °F 79% 29.65 in 6.2 mi SE 11.5 mph - N/A   Scattered Clouds
10:00 PM 84.2 °F 94.1 °F 77.0 °F 79% 29.65 in 6.2 mi SSE 12.7 mph - N/A   Scattered Clouds
10:30 PM 82.4 °F 90.9 °F 77.0 °F 84% 29.65 in 6.2 mi SSE 13.8 mph - N/A   Partly Cloudy
11:00 PM 82.4 °F 90.9 °F 77.0 °F 84% 29.65 in 6.2 mi SSE 12.7 mph - N/A   Partly Cloudy
11:30 PM 82.4 °F 90.9 °F 77.0 °F 84% 29.65 in 6.2 mi SSE 12.7 mph - N/A   Partly Cloudy